When you browse on this site, cookies collect data to enhance your experience and personalize the content and advertising you see.
Visit our Privacy Policy to learn more. By continuing to use the site, you agree to this use of cookies and data.
  • In Romania
  • List of Countries
  • For 7 days
  • Water Temperature
  • Satellite Maps
  • Weather Map
  • Weather Widgets
  • user-avatar
    Login

    Hourly Weather Arriate

    Today, 17 February, Sunday

    Time Temperature Precipitation Wind Pressure Humidity
    00:00 +5°C° 0 mm 2 mps 695 mmHg 93%
    01:00 +5°C° 0 mm 2 mps 695 mmHg 91%
    02:00 +5°C° 0 mm 2 mps 695 mmHg 90%
    03:00 +5°C° 0 mm 2 mps 695 mmHg 89%
    04:00 +5°C° 0 mm 2 mps 695 mmHg 88%
    05:00 +4°C° 0 mm 2 mps 695 mmHg 87%
    06:00 +4°C° 0 mm 2 mps 695 mmHg 86%
    07:00 +6°C° 0 mm 2 mps 695 mmHg 82%
    08:00 +7°C° 0 mm 2 mps 695 mmHg 78%
    09:00 +8°C° 0 mm 2 mps 696 mmHg 74%
    10:00 +10°C° 0 mm 2 mps 696 mmHg 67%
    11:00 +13°C° 0 mm 2 mps 696 mmHg 60%
    12:00 +14°C° 0 mm 2 mps 696 mmHg 53%
    13:00 +14°C° 0 mm 2 mps 696 mmHg 53%
    14:00 +14°C° 0 mm 2 mps 696 mmHg 54%
    15:00 +15°C° 0 mm 2 mps 695 mmHg 54%
    16:00 +13°C° 0 mm 2 mps 695 mmHg 61%
    17:00 +10°C° 0 mm 2 mps 694 mmHg 69%
    18:00 +8°C° 0 mm 2 mps 693 mmHg 77%
    19:00 +8°C° 0 mm 2 mps 693 mmHg 80%
    20:00 +7°C° 0 mm 2 mps 693 mmHg 82%
    21:00 +6°C° 0 mm 2 mps 693 mmHg 85%
    22:00 +6°C° 0 mm 2 mps 693 mmHg 83%
    23:00 +5°C° 0 mm 2 mps 693 mmHg 82%

    Tomorrow, 18 February, Monday

    Time Temperature Precipitation Wind Pressure Humidity
    00:00 +5°C° 0 mm 2 mps 693 mmHg 80%
    01:00 +5°C° 0 mm 2 mps 692 mmHg 79%
    02:00 +5°C° 0 mm 2 mps 692 mmHg 77%
    03:00 +5°C° 0 mm 2 mps 692 mmHg 76%
    04:00 +5°C° 0 mm 2 mps 691 mmHg 76%
    05:00 +5°C° 0 mm 2 mps 691 mmHg 75%
    06:00 +6°C° 0 mm 2 mps 691 mmHg 75%
    07:00 +6°C° 0.3 mm 2 mps 691 mmHg 77%
    08:00 +6°C° 0.3 mm 2 mps 691 mmHg 80%
    09:00 +7°C° 0.3 mm 2 mps 691 mmHg 82%
    10:00 +8°C° 0.3 mm 2 mps 691 mmHg 79%
    11:00 +8°C° 0.3 mm 2 mps 691 mmHg 76%
    12:00 +9°C° 0.3 mm 2 mps 691 mmHg 73%
    13:00 +9°C° 0.3 mm 2 mps 691 mmHg 72%
    14:00 +9°C° 0.3 mm 2 mps 691 mmHg 71%
    15:00 +10°C° 0.3 mm 2 mps 690 mmHg 69%
    16:00 +9°C° 0.4 mm 2 mps 690 mmHg 75%
    17:00 +8°C° 0.4 mm 2 mps 690 mmHg 80%
    18:00 +8°C° 0.4 mm 1 mps 690 mmHg 85%
    19:00 +7°C° 0 mm 1 mps 690 mmHg 85%
    20:00 +7°C° 0 mm 1 mps 690 mmHg 85%
    21:00 +6°C° 0 mm 1 mps 691 mmHg 85%
    22:00 +6°C° 0 mm 1 mps 691 mmHg 82%
    23:00 +7°C° 0 mm 1 mps 691 mmHg 79%

    Day after tomorrow, 19 February, Tuesday

    Time Temperature Precipitation Wind Pressure Humidity
    00:00 +7°C° 0 mm 1 mps 692 mmHg 76%
    01:00 +7°C° 0.1 mm 1 mps 692 mmHg 75%
    02:00 +7°C° 0.1 mm 1 mps 692 mmHg 75%
    03:00 +6°C° 0.1 mm 0 mps 692 mmHg 75%
    04:00 +6°C° 0 mm 0 mps 692 mmHg 75%
    05:00 +5°C° 0 mm 0 mps 692 mmHg 76%
    06:00 +5°C° 0 mm 0 mps 692 mmHg 77%
    07:00 +6°C° 0 mm 0 mps 693 mmHg 73%
    08:00 +7°C° 0 mm 0 mps 693 mmHg 69%
    09:00 +9°C° 0 mm 1 mps 694 mmHg 65%
    10:00 +11°C° 0 mm 1 mps 694 mmHg 59%
    11:00 +12°C° 0 mm 1 mps 695 mmHg 53%
    12:00 +13°C° 0 mm 1 mps 695 mmHg 47%
    13:00 +13°C° 0 mm 1 mps 695 mmHg 49%
    14:00 +13°C° 0 mm 1 mps 694 mmHg 50%
    15:00 +13°C° 0 mm 1 mps 694 mmHg 51%
    16:00 +12°C° 0 mm 1 mps 694 mmHg 58%
    17:00 +11°C° 0 mm 1 mps 693 mmHg 64%
    18:00 +9°C° 0 mm 0 mps 693 mmHg 71%
    19:00 +9°C° 0 mm 1 mps 693 mmHg 75%
    20:00 +8°C° 0 mm 1 mps 694 mmHg 79%
    21:00 +7°C° 0 mm 1 mps 694 mmHg 83%
    22:00 +7°C° 0 mm 1 mps 694 mmHg 84%
    23:00 +6°C° 0 mm 1 mps 694 mmHg 85%

    20 February, Wednesday

    Time Temperature Precipitation Wind Pressure Humidity
    00:00 +6°C° 0 mm 1 mps 694 mmHg 86%
    01:00 +6°C° 0 mm 1 mps 694 mmHg 87%
    02:00 +6°C° 0 mm 1 mps 694 mmHg 87%
    03:00 +6°C° 0 mm 1 mps 694 mmHg 88%
    04:00 +5°C° 0 mm 1 mps 694 mmHg 88%
    05:00 +5°C° 0 mm 1 mps 694 mmHg 89%
    06:00 +5°C° 0 mm 1 mps 694 mmHg 89%
    07:00 +7°C° 0 mm 1 mps 695 mmHg 85%
    08:00 +8°C° 0 mm 1 mps 695 mmHg 80%
    09:00 +9°C° 0 mm 1 mps 696 mmHg 76%
    10:00 +11°C° 0 mm 1 mps 696 mmHg 70%
    11:00 +12°C° 0 mm 1 mps 697 mmHg 64%
    12:00 +13°C° 0 mm 2 mps 697 mmHg 58%
    13:00 +13°C° 0 mm 2 mps 697 mmHg 58%
    14:00 +13°C° 0 mm 2 mps 696 mmHg 59%
    15:00 +13°C° 0 mm 2 mps 696 mmHg 60%
    16:00 +12°C° 0 mm 2 mps 696 mmHg 67%
    17:00 +10°C° 0 mm 2 mps 696 mmHg 74%
    18:00 +9°C° 0 mm 2 mps 695 mmHg 81%
    19:00 +8°C° 0 mm 2 mps 696 mmHg 85%
    20:00 +7°C° 0 mm 2 mps 696 mmHg 89%
    21:00 +6°C° 0 mm 2 mps 696 mmHg 93%
    22:00 +5°C° 0 mm 2 mps 696 mmHg 93%
    23:00 +5°C° 0 mm 2 mps 696 mmHg 94%

    21 February, Thursday

    Time Temperature Precipitation Wind Pressure Humidity
    00:00 +5°C° 0 mm 2 mps 696 mmHg 94%
    01:00 +5°C° 0 mm 2 mps 696 mmHg 94%
    02:00 +5°C° 0 mm 2 mps 696 mmHg 95%
    03:00 +5°C° 0 mm 2 mps 696 mmHg 95%
    04:00 +5°C° 0 mm 2 mps 696 mmHg 95%
    05:00 +5°C° 0 mm 2 mps 696 mmHg 95%
    06:00 +5°C° 0 mm 2 mps 696 mmHg 95%
    07:00 +4°C° 0 mm 3 mps 697 mmHg 91%
    08:00 +5°C° 0 mm 3 mps 697 mmHg 87%
    09:00 +7°C° 0 mm 3 mps 698 mmHg 83%
    10:00 +9°C° 0 mm 3 mps 698 mmHg 74%
    11:00 +10°C° 0 mm 3 mps 698 mmHg 66%
    12:00 +12°C° 0 mm 4 mps 699 mmHg 58%
    13:00 +12°C° 0 mm 3 mps 699 mmHg 58%
    14:00 +12°C° 0 mm 3 mps 699 mmHg 59%
    15:00 +12°C° 0 mm 3 mps 698 mmHg 59%
    16:00 +11°C° 0 mm 3 mps 698 mmHg 66%
    17:00 +9°C° 0 mm 2 mps 698 mmHg 73%
    18:00 +8°C° 0 mm 2 mps 698 mmHg 80%
    19:00 +7°C° 0 mm 2 mps 698 mmHg 84%
    20:00 +6°C° 0 mm 2 mps 698 mmHg 87%
    21:00 +5°C° 0 mm 2 mps 699 mmHg 91%
    22:00 +5°C° 0 mm 2 mps 699 mmHg 91%
    23:00 +5°C° 0 mm 2 mps 699 mmHg 92%

    22 February, Friday

    Time Temperature Precipitation Wind Pressure Humidity
    00:00 +5°C° 0 mm 2 mps 699 mmHg 92%
    01:00 +5°C° 0 mm 2 mps 699 mmHg 93%
    02:00 +5°C° 0 mm 2 mps 699 mmHg 94%
    03:00 +5°C° 0 mm 2 mps 699 mmHg 95%
    04:00 +5°C° 0 mm 2 mps 699 mmHg 95%
    05:00 +5°C° 0 mm 2 mps 699 mmHg 95%
    06:00 +5°C° 0 mm 2 mps 699 mmHg 96%
    07:00 +6°C° 0 mm 2 mps 699 mmHg 91%
    08:00 +7°C° 0 mm 3 mps 700 mmHg 86%
    09:00 +8°C° 0 mm 3 mps 700 mmHg 81%
    10:00 +10°C° 0 mm 3 mps 701 mmHg 73%
    11:00 +12°C° 0 mm 3 mps 701 mmHg 65%
    12:00 +14°C° 0 mm 3 mps 701 mmHg 56%
    13:00 +15°C° 0 mm 2 mps 701 mmHg 55%
    14:00 +15°C° 0 mm 2 mps 700 mmHg 54%
    15:00 +16°C° 0 mm 2 mps 700 mmHg 53%
    16:00 +14°C° 0 mm 2 mps 700 mmHg 61%
    17:00 +12°C° 0 mm 2 mps 699 mmHg 68%
    18:00 +11°C° 0 mm 1 mps 699 mmHg 76%
    19:00 +10°C° 0 mm 1 mps 699 mmHg 79%
    20:00 +8°C° 0 mm 1 mps 699 mmHg 82%
    21:00 +7°C° 0 mm 1 mps 700 mmHg 84%
    22:00 +7°C° 0 mm 1 mps 699 mmHg 82%
    23:00 +7°C° 0 mm 1 mps 699 mmHg 79%
    Show more